Tiempo Historia de San Luis Potosi, Mexico

Change the Weather History Date:

Viernes, Marzo 23, 2012

  Actual Average Record
Temperature  
Temperatura media 62 ° F -  
Temperatura máxima 84 ° F 79 ° F 92 ° F (2014)
Temperatura mínima 39 ° F 49 ° F 37 ° F (1998)
Degree Days  
Grados día de calefacción 4    
Growing Degree Days 12 (Base 50)    
Moisture  
Punto de rocío 39 ° F    
Average Humidity 44    
Maximum Humidity 92    
Minimum Humidity 9    
Precipitación  
Precipitación 0.00 pul - - ()
Presión al nivel del mar  
Presión al nivel del mar 30.01 pul    
Viento  
Velocidad del viento 2 mph ()    
Velocidad máxima del viento 12 mph    
Max Gust Speed -    
Visibilidad 11.7 Millas    
Eventos      
Averages and records for this station are not official NWS values.
T = Trace of Precipitation, MM = Missing Value Source: Averaged Metar Reports

Daily Weather History Graph

Daily Weather History Graph

Search for Another Location

Airport:

Trip Planner

Search our weather history database for the weather conditions in past years. The results will help you decide how hot, cold, wet, or windy it might be!

Date:

Astronomía

Mar. 23, 2012 Salida Puesta
Hora real 6:44 AM CST 6:56 PM CST
Crepúsculo civil 6:22 AM CST 7:18 PM CST
Crepúsculo náutico 5:56 AM CST 7:44 PM CST
Crepúsculo astronómico 5:29 AM CST 8:10 PM CST
Luna 7:06 AM CST 8:02 PM CST
Horas de luz 12h 56m
Horas de luz
12h 11m
Luna nueva, 1% of the Moon is Illuminated
Mar 23
Luna nueva
Mar 30
Cuarto creciente
Abr 6
Luna llena
Abr 13
Cuarto menguante
Abr 21
Nueva

Hourly Weather History & Observations

Hora (CST) Temp. Índice de calor Punto de rocío Humedad Presión Visibilidad Wind Dir Velocidad del viento Velocidad de ráfagas Precip Eventos Condiciones
1:06 AM 55.4 ° F - 37.4 ° F 51% 30.17 pul 12.0 mi Sin viento Sin viento - N/A   Despejado
1:45 AM 55.4 ° F - 37.4 ° F 51% 30.17 pul 12.0 mi Sin viento Sin viento - N/A   Despejado
2:43 AM 53.6 ° F - 41.0 ° F 62% 29.73 pul 12.0 mi Sin viento Sin viento - N/A   Despejado
3:49 AM 53.6 ° F - 41.0 ° F 62% 30.18 pul 12.0 mi Sin viento Sin viento - N/A   Despejado
4:45 AM 50.0 ° F - 44.6 ° F 82% 30.18 pul 10.0 mi Sin viento Sin viento - N/A   Despejado
5:46 AM 46.4 ° F - 39.2 ° F 76% 29.81 pul 10.0 mi Sin viento Sin viento - N/A   Despejado
5:50 AM 46 ° F - 44 ° F 92%  pul 5 mi Norte 2.2 mph - -  
6:41 AM 42.8 ° F - 39.2 ° F 87% 30.21 pul 10.0 mi Sin viento Sin viento - N/A   Despejado
7:45 AM 44.6 ° F - 37.4 ° F 76% 30.24 pul 10.0 mi Sin viento Sin viento - N/A   Despejado
8:43 AM 59.0 ° F - 39.2 ° F 48% 29.89 pul 10.0 mi Sin viento Sin viento - N/A   Despejado
8:45 AM 58 ° F - 40 ° F 40% 30.08 pul 9 mi ESE 2.2 mph - -   Bruma
9:42 AM 66.2 ° F - 37.4 ° F 35% 30.26 pul 12.0 mi Sin viento Sin viento - N/A   Despejado
10:58 AM 71.6 ° F - 41.0 ° F 33% 30.23 pul 12.0 mi Oeste 6.9 mph - N/A   Despejado
11:45 AM 77 ° F - 29 ° F 9% 30.04 pul 9 mi Norte 2.2 mph - -   Bruma
11:45 AM 75.2 ° F - 41.0 ° F 29% 29.82 pul 15.0 mi Sin viento Sin viento - N/A   Despejado
12:43 PM 78.8 ° F - 33.8 ° F 20% 30.20 pul 15.0 mi Este 5.8 mph - N/A   Despejado
1:44 PM 82.4 ° F 83.9 ° F 64.4 ° F 54% 30.16 pul 15.0 mi SSE 9.2 mph - N/A   Parcialmente nublado
2:48 PM 84.2 ° F - 28.4 ° F 13% 29.69 pul 15.0 mi Sin viento Sin viento - N/A   Parcialmente nublado
2:55 PM 83 ° F - 60 ° F 36% 29.86 pul 12 mi SSO 2.2 mph - -  
3:42 PM 84.2 ° F - 24.8 ° F 11% 30.11 pul 15.0 mi SSE 9.2 mph - N/A   Nubes dispersas
4:43 PM 84.2 ° F - 19.4 ° F 9% 30.09 pul 15.0 mi Sur 9.2 mph - N/A   Nubes dispersas
5:46 PM 80.6 ° F - 26.6 ° F 14% 29.72 pul 15.0 mi Sin viento Sin viento - N/A   Nubes dispersas
5:50 PM 78 ° F - 58 ° F 40% 29.72 pul 12 mi Sin viento Sin viento - -   Parcialmente nublado
6:43 PM 77.0 ° F - 30.2 ° F 18% 30.10 pul 15.0 mi ESE 11.5 mph - N/A   Nubes dispersas
7:45 PM 73.4 ° F - 28.4 ° F 19% 30.11 pul 12.0 mi Sin viento Sin viento - N/A   Despejado
8:44 PM 69.8 ° F - 41.0 ° F 35% 29.78 pul 12.0 mi SSO 6.9 mph - N/A   Despejado
8:50 PM 56 ° F - 50 ° F 75% 29.78 pul 5 mi Norte 2.2 mph - -  
9:50 PM 68.0 ° F - 41.0 ° F 37% 30.16 pul 12.0 mi Sur 9.2 mph - N/A   Despejado
10:48 PM 64.4 ° F - 42.8 ° F 45% 30.17 pul 12.0 mi SSE 9.2 mph - N/A   Despejado
11:50 PM 62.6 ° F - 42.8 ° F 48% 29.75 pul 10.0 mi ESE 4.6 mph - N/A   Parcialmente nublado